This is the latest recevied weather packets stored in our database for station/object KI2K. If no packets are shown the sender has not sent any weather packets the latest 10 day(s).
| Time | Temp. | Humidity | Pressure | Rain* | Wind** | Luminosity | Snow |
|---|---|---|---|---|---|---|---|
| 1778102591 | 15° C | 59% | 1013.4 hPa | 0 mm | - | 478 W/m² | - |
| 1778102281 | 14.44° C | 59% | 1013.5 hPa | 0 mm | - | 534 W/m² | - |
| 1778101978 | 13.89° C | 61% | 1013.4 hPa | 0 mm | - | 265 W/m² | - |
| 1778101675 | 14.44° C | 60% | 1013.4 hPa | 0 mm | - | 272 W/m² | - |
| 1778101372 | 15° C | 59% | 1013.2 hPa | 0 mm | - | 280 W/m² | - |
| 1778101069 | 14.44° C | 63% | 1013.4 hPa | 0 mm | - | 317 W/m² | - |
| 1778100764 | 14.44° C | 64% | 1013.3 hPa | 0 mm | - | 345 W/m² | - |
| 1778100461 | 14.44° C | 63% | 1013.1 hPa | 0 mm | - | 290 W/m² | - |
| 1778100159 | 13.89° C | 64% | 1013.1 hPa | 0 mm | - | 285 W/m² | - |
| 1778099857 | 13.89° C | 63% | 1013.3 hPa | 0 mm | - | 262 W/m² | - |
| 1778099554 | 13.89° C | 65% | 1013.3 hPa | 0 mm | - | 251 W/m² | - |
| 1778099251 | 13.89° C | 65% | 1013.3 hPa | 0 mm | - | 239 W/m² | - |
| 1778098947 | 13.89° C | 62% | 1013.4 hPa | 0 mm | - | 228 W/m² | - |
| 1778098644 | 13.89° C | 65% | 1013.3 hPa | 0 mm | - | 225 W/m² | - |
| 1778098341 | 13.89° C | 62% | 1013.2 hPa | 0 mm | - | 213 W/m² | - |
| 1778098038 | 14.44° C | 63% | 1013.3 hPa | 0 mm | - | 214 W/m² | - |
| 1778097735 | 13.89° C | 63% | 1013.3 hPa | 0 mm | - | 231 W/m² | - |
| 1778097431 | 13.89° C | 61% | 1013.5 hPa | 0 mm | - | 268 W/m² | - |
| 1778097127 | 13.89° C | 60% | 1013.5 hPa | 0 mm | - | 281 W/m² | - |
| 1778096819 | 13.89° C | 59% | 1013.4 hPa | 0 mm | - | 247 W/m² | - |
| 1778096515 | 13.89° C | 61% | 1013.4 hPa | 0 mm | - | 218 W/m² | - |
| 1778096213 | 13.89° C | 65% | 1013.4 hPa | 0 mm | - | 199 W/m² | - |
| 1778095910 | 13.89° C | 67% | 1013.5 hPa | 0 mm | - | 211 W/m² | - |
| 1778095607 | 13.33° C | 64% | 1013.4 hPa | 0 mm | - | 203 W/m² | - |
| 1778095303 | 13.33° C | 63% | 1013.6 hPa | 0 mm | - | 218 W/m² | - |
* Rain latest hour (hover to see other rain measurements)
** Current wind speed in m/s (hover to see current wind gust speed)